National Weather Service Raw Text Product

Displaying AFOS PIL: RWRWI Received: 2017-08-18 20:00 UTC


614 
ASUS43 KMKX 182000
RWRWI 

WISCONSIN REGIONAL WEATHER ROUNDUP
NATIONAL WEATHER SERVICE MILWAUKEE/SULLIVAN WI
300 PM CDT FRI AUG 18 2017

NOTE: "FAIR" INDICATES FEW OR NO CLOUDS BELOW 12,000 FEET WITH NO
SIGNIFICANT WEATHER AND/OR OBSTRUCTIONS TO VISIBILITY.

WIZ001-002-006>008-014>016-023>028-182100-
NORTHWEST WISCONSIN
  
CITY           SKY/WX    TMP DP  RH WIND       PRES   REMARKS
SUPERIOR ARPT    N/A     70  63  78 SW5       29.84S                  
ASHLAND        CLOUDY    72  60  66 W7        29.85S                  
HAYWARD        CLOUDY    70  58  65 VRB5      29.88S                  
SIREN          CLOUDY    68  62  80 W7        29.89S                  
CUMBERLAND     CLOUDY    68  59  73 W7        29.89S                  
RICE LAKE      CLOUDY    70  62  76 SW6       29.90S                  
CHETEK         CLOUDY    70  61  73 W6        29.89R                  
LADYSMITH      CLOUDY    70  58  66 NW9       29.89S                  
EAU CLAIRE     CLOUDY    70  63  78 W9        29.87F                  
MENOMONIE      CLOUDY    70  63  77 W7        29.89S                  
NEW RICHMOND   CLOUDY    70  61  73 W10       29.90S                  
OSCEOLA        PTSUNNY   72  64  76 W6        29.92S                  
$$
 
WIZ003>005-009-010-017-018-182100-
NORTH CENTRAL WISCONSIN
  
CITY           SKY/WX    TMP DP  RH WIND       PRES   REMARKS
MANITOWISH WTR CLOUDY    66  57  71 NW8       29.86R                  
ARBOR VITAE    CLOUDY    69  57  65 NW8       29.85S                  
WOODRUFF       CLOUDY    69  57  65 NW8       29.85S                  
RHINELANDER    CLOUDY    69  56  62 NW7       29.85S                  
EAGLE RIVER    CLOUDY    68  54  60 NW10G17   29.83S                  
LAND O LAKES   CLOUDY    66  54  65 NW9G16    29.85S                  
PHILLIPS       CLOUDY    69  59  68 W8        29.86S                  
TOMAHAWK         N/A     69  56  63 NW8       29.85F                  
MEDFORD          N/A     65  58  76 W7        29.87S                  
MERRILL        NOT AVBL                                               
$$
 
WIZ029-030-035-036-043>047-182100-
CENTRAL WISCONSIN
  
CITY           SKY/WX    TMP DP  RH WIND       PRES   REMARKS
WAUSAU         CLOUDY    68  59  73 W8        29.83F                  
MOSINEE        CLOUDY    68  59  73 W10       29.87S                  
MARSHFIELD     CLOUDY    69  59  70 W12       29.86S                  
STEVENS POINT  PTSUNNY   68  57  67 NW9G17    29.85F                  
WAUPACA        CLOUDY    73  60  63 W5        29.84F                  
WAUTOMA        MOSUNNY   74  59  59 NW13G18   29.85S                  
WISC RAPIDS    CLOUDY    71  60  68 W12       29.87S                  
CAMP DOUGLAS   MOSUNNY   70  61  73 NW9       29.87S                  
$$
 
WIZ011>013-019>022-031-037>040-048>050-182100-
NORTHEAST WISCONSIN
  
CITY           SKY/WX    TMP DP  RH WIND       PRES   REMARKS
ANTIGO         PTSUNNY   68  58  68 NW12      29.84F                  
SHAWANO        CLOUDY    72  60  65 W6        29.82S                  
OCONTO         CLOUDY    71  59  64 NW6       29.79S                  
STURGEON BAY   CLOUDY    70  60  70 W10       29.81R                  
GREEN BAY      CLOUDY    70  63  78 W12       29.81S                  
MANITOWOC      NOT AVBL                                               
APPLETON       PTSUNNY   70  55  60 W15       29.82F                  
CLINTONVILLE   CLOUDY    70  57  64 W7        29.83S                  
OSHKOSH        CLOUDY    72  60  66 NW8       29.83F                  
$$
 
WIZ032>034-041-042-053>061-182100-
SOUTHWEST WISCONSIN
  
CITY           SKY/WX    TMP DP  RH WIND       PRES   REMARKS
LA CROSSE      CLOUDY    73  62  68 W7        29.89R                  
SPARTA         CLOUDY    70  62  75 W7        29.89R                  
VIROQUA        CLOUDY    68  61  78 W6        29.91R                  
BOSCOBEL       CLOUDY    77  61  57 W7        29.89S                  
PRAIRIE DU CHI CLOUDY    74  58  56 W8        29.90R                  
PLATTEVILLE    MOSUNNY   75  64  67 W8        29.90F                  
$$

WIZ056-057-062-063-064-067-068-182100-
SOUTH CENTRAL WISCONSIN
  
CITY           SKY/WX    TMP DP  RH WIND       PRES   REMARKS
REEDSBURG      PTSUNNY   74  59  59 W9G16     29.87S                  
BARABOO/DELLS  CLOUDY    75  58  54 NW10      29.87S                  
LONE ROCK      CLOUDY    73  62  68 W10       29.88R                  
MINERAL POINT  MOSUNNY   77  63  61 NW8       29.90S                  
MADISON        PTSUNNY   77  61  57 W9        29.85S                  
MIDDLETON      MOSUNNY   77  60  54 NW8G17    29.87S                  
WATERTOWN      PTSUNNY   76  62  62 W13       29.85S                  
MONROE         SUNNY     75  59  57 W6        29.88S                  
JANESVILLE     MOSUNNY   79  61  53 W8        29.86S HX  80           
$$
 
WIZ051-052-058>065-066-070>072-182100-
SOUTHEAST WISCONSIN
  
CITY           SKY/WX    TMP DP  RH WIND       PRES   REMARKS
MILWAUKEE      PTSUNNY   77  59  53 NW14      29.83F                  
WAUKESHA       PTSUNNY   73  59  60 W13       29.86S                  
MILWAUKEE/TIMM CLOUDY    75  55  50 W13       29.85S                  
RACINE         MOSUNNY   77  62  59 W6        29.85F                  
KENOSHA        PTSUNNY   77  62  59 NW10      29.85F                  
FOND DU LAC    PTSUNNY   73  59  61 NW8       29.83F                  
SHEBOYGAN      CLOUDY    72  62  71 NW10G17   29.83S                  
WEST BEND      PTSUNNY   72  61  68 W9        29.84F                  
JUNEAU         PTSUNNY   73  60  62 W9        29.86S                  
$$

LSZ147-162-182100-
LAKE SUPERIOR
  
STATION/POSITION TIME  TEMP    WIND        PRES    WAVE
                       AIR SEA DIR/SP/G            HT/PER
                 (UTC) (F)     (DEG/KT/KT) (MB)    (FT/S)
W MID LAKE BUOY  1850   62 61  270/ 14/ 16 1009.1R   2/ 5
DEVILS ISLAND    1900   62     240/ 10/ 13 1010.1F
PORT WING        1740   71     290/  4/  4 1010.8
SAXON HARBOR     1930   68     340/  5/  6 1010.2S
$$
 
LMZ867-665-643>646-182100-
LAKE MICHIGAN
  
STATION/POSITION TIME  TEMP    WIND        PRES    WAVE
                       AIR SEA DIR/SP/G            HT/PER
                 (UTC) (F)     (DEG/KT/KT) (MB)    (FT/S)
S GREEN BAY BUOY 1930   70 71  300/  6/  8 1008.8R
N MID LAKE BUOY  1850   65 67  290/ 17/ 21 1007.3F   4/ 4
NORTHPORT PIER   1940   67     320/  5/  9 1008.1R
KEWAUNEE LAKESHO 1930   72     310/  7/ 13 1008.3S
SHEBOYGAN LAKESH 1900   69     270/ 13/ 17 1009.5R
PORT WASHINGTON  1930   75     280/  5/ 10 1010.8F
ATWATER BUOY     1839   72 71  270/ 10/ 14 1010.7R
MILWAUKEE LAKESH 1930   74     260/ 11/ 13   N/A
S MID LAKE BUOY  1850   69 71  290/ 12/ 14 1010.8R   3/ 5
KENOSHA   LAKESH 1900   74     260/ 15/ 19 1010.5
$$

TC  - TEMPERATURE IN CELSIUS
VSB - VISIBILITY IN STATUTE MILES
WCI - WIND CHILL INDEX
HX  - HEAT INDEX